Regional Weather Roundup
Issued by NWS

Home | Current Version | Previous Version | Graphics & Text | Print | Product List | Glossary On
Versions: 1 2 3 4 5 6 7 8 9 10 11 12 13 14 15 16 17 18 19 20 21 22 23 24 25 26 27 28 29 30 31 32 33 34 35 36 37 38 39 40 41 42 43 44 45 46 47 48 49 50
000
ASUS43 KMPX 280910
RWRMN
WEATHER ROUNDUP FOR MINNESOTA
NATIONAL WEATHER SERVICE TWIN CITIES/CHANHASSEN MN
400 AM CDT THU APR 28 2016


NOTE: "FAIR" INDICATES FEW OR NO CLOUDS BELOW 12,000 FEET WITH NO
SIGNIFICANT WEATHER AND/OR OBSTRUCTIONS TO VISIBILITY. N/A MEANS
CURRENT SKY AND/OR WEATHER CONDITIONS ARE NOT AVAILABLE.

MNZ060>063-068>070-281000-
   Twin Cities Metro

CITY           SKY/WX    TMP DP  RH WIND       PRES   REMARKS
TWIN CITIES    CLOUDY    42  33  70 NE21G30   29.88S
ST PAUL        LGT RAIN  41  35  79 E12       29.89F
CRYSTAL        CLOUDY    43  33  68 NE15G22   29.88F
BLAINE         CLOUDY    43  34  70 NE9       29.89F
EDEN PRAIRIE   CLOUDY    44  33  65 NE15      29.85S
SOUTH ST PAUL  CLOUDY    42  34  72 E9G16     29.88R
LAKE ELMO      RAIN      41  36  81 NE9       29.89S
$$
MNZ001>005-007-008-013>017-022>024-027-028-281000-
   Northwest Minnesota

CITY           SKY/WX    TMP DP  RH WIND       PRES   REMARKS
BEMIDJI        CLOUDY    39  19  44 E8        30.04R
HALLOCK        CLOUDY    43  14  31 E10       30.08S
ROSEAU         CLOUDY    36  27  69 NE6       30.10R
WARROAD        PTCLDY    37  27  65 NE9       30.11R
THIEF RVR FALL CLOUDY    39  18  41 NE10      30.06S
CROOKSTON      CLOUDY    39  21  48 E9        30.05R
FOSSTON        CLOUDY    39  27  60 NE5       30.03S
DETROIT LAKES  CLOUDY    45  16  31 E10       29.99R
MOORHEAD       CLOUDY    43  27  52 N8        30.00S
PARK RAPIDS    CLOUDY    43   9  24 E10G18    29.99R
MAHNOMEN       CLOUDY    42  21  43 E12       30.00S
$$
MNZ006-009>011-018-025>026-281000-
   North Central Minnesota

CITY           SKY/WX    TMP DP  RH WIND       PRES   REMARKS
BAUDETTE       CLOUDY    36  14  40 NE6       30.09R
FLAG ISLAND    MOCLDY    39  16  38 NE9       30.12R
INTL FALLS     MOCLDY    37  17  44 NE5       30.09R
WASKISH        CLOUDY    36  21  55 NE3       30.08R
BIG FORK       CLOUDY    36  18  48 CALM      30.06S
LONGVILLE      CLOUDY    39  10  30 E6        30.01S
GRAND RAPIDS   CLOUDY    37  10  32 CALM      30.05R
CRANE LAKE     CLOUDY    27  25  93 CALM      30.10S
ORR            CLOUDY    36  14  41 CALM      30.05R
COOK           CLOUDY    30  18  59 CALM      30.07S
WALKER         CLOUDY    41  16  36 E10G16    30.03R
$$
MNZ012-019>021-037-281000-
   Northeast Minnesota

CITY           SKY/WX    TMP DP  RH WIND       PRES   REMARKS
DULUTH         CLOUDY    37  18  46 E17       30.01F
ELY            CLOUDY    36  16  44 CALM      30.06R
HIBBING        CLOUDY    34  13  41 NE3       30.04S
EVELETH        CLOUDY    34  14  44 NE6       30.06R WCI  29
DULUTH HARBOR  CLOUDY    37  32  81 NE17      30.04F
TWO HARBORS    CLOUDY    39  21  48 E10       30.04S
SILVER BAY     CLOUDY    39  12  33 NE10G20   30.05R
GRAND MARAIS     N/A     42  15  33 NE12      30.09R
G MARAIS ARPRT CLOUDY    34  10  37 NE10      30.07S WCI  26
$$
MNZ029>031-032-039>041-046>048-054>057-064-281000-
   West Central Minnesota

CITY           SKY/WX    TMP DP  RH WIND       PRES   REMARKS
FERGUS FALLS   CLOUDY    43  19  39 E7        29.95S
WHEATON        CLOUDY    39  32  75 N8        29.96S
MORRIS         CLOUDY    39  30  70 E17       29.91S
ALEXANDRIA     LGT RAIN  35  30  82 MISG      29.93F
ELBOW LAKE     LGT RAIN  37  29  72 E12G18    29.95S
WADENA         CLOUDY    41  12  30 E10G23    29.96S
GLENWOOD       CLOUDY    36  30  80 NE15      29.92S
APPLETON       CLOUDY    39  28  65 NE10      29.90R
BENSON         CLOUDY    39  28  65 E10G18    29.90S
ORTONVILLE     CLOUDY    37  30  75 NE13      29.91R
MADISON        CLOUDY    39  30  70 NE13      29.89S
WILLMAR        CLOUDY    39  28  65 NE15G21   29.89S
$$
MNZ033>034-036-042>043-049>051-058-059-281000-
   Central Minnesota

CITY           SKY/WX    TMP DP  RH WIND       PRES   REMARKS
ST CLOUD       CLOUDY    37  28  70 NE12G20   29.92F
SAUK CENTRE    CLOUDY    35  30  80 NE13      29.92F WCI  26
PAYNESVILLE    CLOUDY    38  29  69 NE15      29.91S
AITKIN         CLOUDY    43  10  26 E9        29.99R
PINE RIVER     CLOUDY    41  16  36 E12       30.04R
BRAINERD       CLOUDY    40  14  34 NE12      29.99S
STAPLES        CLOUDY    39  10  30 E9G16     29.97S
LONG PRAIRIE   CLOUDY    34  30  86 N13G20    29.94F WCI  25
LITTLE FALLS   LGT SNOW  34  30  86 NE6       29.96F WCI  29
LITCHFIELD     CLOUDY    39  32  75 NE9       29.89S
BUFFALO        CLOUDY    40  30  67 NE12      29.90S
MAPLE LAKE     CLOUDY    40  31  69 NE10G16   29.91R
HUTCHINSON     RAIN      39  38  96 NE13      29.88S
$$
MNZ037-044-045-052-053-281000-
   East Central Minnesota

CITY           SKY/WX    TMP DP  RH WIND       PRES   REMARKS
PRINCETON      CLOUDY    39  28  65 NE12G18   29.93F
MORA           CLOUDY    36  21  55 NE6       29.98S
CAMBRIDGE      LGT RAIN  39  28  65 NE9       29.92F
RUSH CITY      LGT RAIN  36  28  73 NE8       29.95F
MOOSE LAKE     CLOUDY    37  19  48 NE7G18    29.98R
HINCKLEY       CLOUDY    37  23  56 N5        29.97S
CLOQUET        CLOUDY    39  10  30 E12G17    30.00S
MCGREGOR       CLOUDY    41  16  36 E13G18    30.01S
$$
MNZ071>073-080-081-089-090-097-098-281000-
   Southwest Minnesota

CITY           SKY/WX    TMP DP  RH WIND       PRES   REMARKS
MONTEVIDEO     LGT RAIN  37  36  93 E9        29.90S
GRANITE FALLS  CLOUDY    40  39  93 NE10      29.89R
CANBY          LGT RAIN  41  39  93 NE8       29.88S
MARSHALL       LGT RAIN  39  38  96 E17       29.85R
REDWOOD FALLS  LGT RAIN  40  37  89 E14G22    29.85S
OLIVIA         LGT RAIN  39  36  87 E13G20    29.86S
PIPESTONE      LGT RAIN  39  37  93 E15       29.79R
WINDOM         DRIZZLE   39  37  93 NE17G25   29.79S
WORTHINGTON    LGT RAIN  39  38  96 NE18      29.77S
JACKSON        LGT SNOW  39  37  93 NE16      29.78R
TRACY          LGT RAIN  39  38  97 E18       29.84R
SLAYTON        LGT RAIN  38  38 100 NE14      29.81R
$$
MNZ065>067-074>077-082>085-091>093-281000-
   South Central Minnesota

CITY           SKY/WX    TMP DP  RH WIND       PRES   REMARKS
MANKATO        CLOUDY    39  36  87 NE13G21   29.83R
NEW ULM        LGT RAIN  37  37 100 E10G20    29.84R
ST JAMES       CLOUDY    34  34 100 NE13      29.82R FOG     WCI  25
FAIRMONT       CLOUDY    39  32  75 NE13      29.78R
GLENCOE        DRIZZLE   40  39  97 NE8G16    29.86S
FARIBAULT      CLOUDY    37  37 100 NE8       29.84R
OWATONNA       CLOUDY    39  34  81 NE10      29.82S
ALBERT LEA     CLOUDY    37  37 100 E14G22    29.78S
$$
MNZ078>079-086>088-094>096-281000-
   Southeast Minnesota

CITY           SKY/WX    TMP DP  RH WIND       PRES   REMARKS
ROCHESTER      LGT RAIN  39  32  76 E13       29.81R
RED WING       CLOUDY    43  32  65 E14       29.83S
STANTON        CLOUDY    41  33  72 NE18      29.83S
DODGE CENTER   LGT RAIN  37  34  87 E15       29.81R
WINONA         CLOUDY    43  28  56 E10       29.83S
AUSTIN         LGT RAIN  37  34  87 E10       29.79R
PRESTON        LGT RAIN  38  31  75 E12G18    29.80R
$$
ABBREVIATIONS USED IN REMARKS
   TC - TEMPERATURES IN CELSIUS
  WCI - WIND CHILL INDEX
   HX - HEAT INDEX
  VSB - VISIBILITY
$$




USA.gov is the U.S. government's official web portal to all federal, state and local government web resources and services.